User: anonymous   Login
Location: Brookview Estates
(36.0476°N, 86.6931°W)
Time: 14:04:20
(UTC+00:00)
Language:

Cosmos 2333 Rocket - Orbit

View from above orbital plane
View from above orbital plane
View from above satellite
View from above satellite

Ground track
Ground track

The orbit data is extracted from the following two-line orbital elements,

1 24298U 96051B   21162.56333426 -.00000136  00000-0 -47440-4 0  9995
2 24298  70.8301 233.3681 0016592 188.4017 171.6828 14.12440690277060
Epoch (UTC): 11 June 2021 13:31:12
Eccentricity: 0.0016592
inclination: 70.8301°
perigee height: 839 km
apogee height: 863 km
right ascension of ascending node: 233.3681°
argument of perigee: 188.4017°
revolutions per day: 14.12440690
mean anomaly at epoch: 171.6828°
orbit number at epoch: 27706

The dashed part of the orbit path shows where the satellite is in the earth's shadow,  

DLR